| time (UTC) | temp C | wind direction | speed KPH | gust KPH | rain 1hr cm | rain 24hr cm | rain mn cm | humidity % | barometer mb |
| 20260906042959 | 22 | 274 | 0.0 | 0.0 | 0.00 | 0.46 | 0.00 | 70 | 1019.0 |
| 20260906041958 | 22 | 279 | 0.0 | 0.0 | 0.00 | 0.46 | 0.00 | 70 | 1019.1 |
| 20260906040958 | 22 | 280 | 0.0 | 0.0 | 0.00 | 0.46 | 0.00 | 71 | 1019.0 |
| 20260906040002 | 22 | 280 | 0.0 | 0.0 | 0.00 | 0.46 | 0.46 | 71 | 1019.3 |
| 20260906034958 | 22 | 278 | 0.0 | 0.0 | 0.00 | 0.46 | 0.46 | 72 | 1019.4 |
| 20260906033958 | 22 | 280 | 0.0 | 0.0 | 0.00 | 0.46 | 0.46 | 72 | 1019.4 |
| 20260906032958 | 22 | 290 | 0.0 | 0.0 | 0.00 | 0.46 | 0.46 | 73 | 1019.5 |
| 20260906031957 | 22 | 283 | 0.0 | 0.0 | 0.00 | 0.46 | 0.46 | 73 | 1019.8 |
| 20260906030959 | 22 | 284 | 0.0 | 0.0 | 0.00 | 0.46 | 0.46 | 70 | 1019.9 |
| 20260906025958 | 22 | 284 | 0.0 | 0.0 | 0.00 | 0.46 | 0.46 | 70 | 1019.7 |
| 20260906022959 | 22 | 284 | 0.0 | 0.0 | 0.00 | 0.46 | 0.46 | 75 | 1019.5 |
| 20260906021957 | 22 | 283 | 0.0 | 0.0 | 0.00 | 0.46 | 0.46 | 74 | 1019.2 |
| 20260906020958 | 22 | 283 | 0.0 | 0.0 | 0.00 | 0.46 | 0.46 | 73 | 1019.3 |
| 20260906012958 | 22 | 283 | 0.0 | 0.0 | 0.00 | 0.46 | 0.46 | 76 | 1018.9 |
| 20260906011957 | 22 | 284 | 0.0 | 0.0 | 0.00 | 0.46 | 0.46 | 77 | 1018.7 |
| 20260906010958 | 22 | 297 | 0.0 | 1.6 | 0.00 | 0.46 | 0.46 | 76 | 1018.7 |
| 20260906010001 | 22 | 297 | 0.0 | 3.2 | 0.00 | 0.46 | 0.46 | 76 | 1018.7 |
| 20260906004959 | 22 | 277 | 0.0 | 3.2 | 0.00 | 0.46 | 0.46 | 77 | 1018.7 |
| 20260906003959 | 22 | 278 | 0.0 | 3.2 | 0.00 | 0.46 | 0.46 | 77 | 1018.6 |
| 20260906003000 | 22 | 274 | 0.0 | 4.8 | 0.00 | 0.46 | 0.46 | 76 | 1018.3 |
| 20260906001959 | 22 | 285 | 0.0 | 3.2 | 0.00 | 0.46 | 0.46 | 76 | 1018.3 |
| 20260906000959 | 22 | 285 | 0.0 | 4.8 | 0.00 | 0.46 | 0.46 | 75 | 1018.3 |
| 20260906000000 | 22 | 262 | 0.0 | 4.8 | 0.00 | 0.46 | 0.46 | 74 | 1018.2 |
| 20260905234957 | 22 | 281 | 0.0 | 3.2 | 0.00 | 0.46 | 0.46 | 74 | 1018.1 |
| 20260905233958 | 22 | 292 | 0.0 | 6.4 | 0.00 | 0.46 | 0.46 | 74 | 1017.8 |
| 20260905231957 | 23 | 290 | 0.0 | 4.8 | 0.00 | 0.46 | 0.46 | 74 | 1017.9 |
| 20260905230957 | 23 | 288 | 0.0 | 3.2 | 0.00 | 0.46 | 0.46 | 74 | 1017.8 |
| 20260905225959 | 23 | 283 | 0.0 | 4.8 | 0.00 | 0.46 | 0.46 | 74 | 1017.9 |
| 20260905223957 | 23 | 267 | 0.0 | 3.2 | 0.00 | 0.46 | 0.46 | 74 | 1018.0 |
| 20260905222957 | 23 | 277 | 0.0 | 3.2 | 0.00 | 0.46 | 0.46 | 74 | 1018.0 |
| 20260905221959 | 23 | 260 | 0.0 | 4.8 | 0.00 | 0.46 | 0.46 | 74 | 1018.0 |
| 20260905220957 | 23 | 276 | 0.0 | 6.4 | 0.00 | 0.46 | 0.46 | 73 | 1018.0 |
| 20260905220002 | 23 | 277 | 0.0 | 4.8 | 0.00 | 0.46 | 0.46 | 72 | 1018.0 |
| 20260905214957 | 23 | 293 | 1.6 | 4.8 | 0.00 | 0.46 | 0.46 | 74 | 1018.1 |
| 20260905211958 | 22 | 277 | 0.0 | 0.0 | 0.00 | 0.46 | 0.46 | 74 | 1018.1 |
| 20260905210957 | 22 | 266 | 0.0 | 0.0 | 0.00 | 0.46 | 0.46 | 73 | 1018.2 |
| 20260905210000 | 22 | 270 | 0.0 | 0.0 | 0.00 | 0.46 | 0.46 | 74 | 1018.3 |
| 20260905203957 | 22 | 281 | 0.0 | 0.0 | 0.00 | 0.46 | 0.46 | 74 | 1018.5 |
| 20260905203000 | 21 | 271 | 0.0 | 0.0 | 0.00 | 0.46 | 0.46 | 78 | 1018.7 |
| 20260905201957 | 21 | 281 | 0.0 | 0.0 | 0.00 | 0.46 | 0.46 | 80 | 1018.8 |
| 20260905200958 | 20 | 287 | 0.0 | 0.0 | 0.00 | 0.46 | 0.46 | 80 | 1018.7 |
| 20260905200001 | 20 | 301 | 0.0 | 0.0 | 0.00 | 0.46 | 0.46 | 80 | 1018.9 |
| 20260905194959 | 20 | 277 | 0.0 | 0.0 | 0.00 | 0.46 | 0.46 | 82 | 1018.9 |
| 20260905193959 | 19 | 283 | 0.0 | 0.0 | 0.00 | 0.46 | 0.46 | 84 | 1018.7 |
| 20260905193000 | 19 | 267 | 0.0 | 0.0 | 0.00 | 0.46 | 0.46 | 85 | 1018.7 |
| 20260905191958 | 19 | 359 | 0.0 | 0.0 | 0.03 | 0.46 | 0.46 | 88 | 1018.7 |
| 20260905190958 | 19 | 265 | 0.0 | 0.0 | 0.03 | 0.46 | 0.46 | 86 | 1018.7 |
| 20260905190001 | 19 | 271 | 0.0 | 0.0 | 0.08 | 0.46 | 0.46 | 88 | 1018.7 |
| 20260905184958 | 18 | 263 | 0.0 | 0.0 | 0.43 | 0.46 | 0.46 | 90 | 1019.0 |
| 20260905183959 | 19 | 240 | 0.0 | 0.0 | 0.46 | 0.46 | 0.46 | 88 | 1019.4 |
| 20260905182958 | 20 | 257 | 0.0 | 0.0 | 0.46 | 0.46 | 0.46 | 88 | 1019.4 |
| 20260905181958 | 20 | 251 | 0.0 | 0.0 | 0.43 | 0.43 | 0.43 | 87 | 1019.8 |
| 20260905180958 | 21 | 252 | 0.0 | 0.0 | 0.43 | 0.43 | 0.43 | 84 | 1020.5 |
| 20260905180001 | 23 | 236 | 0.0 | 0.0 | 0.36 | 0.36 | 0.36 | 77 | 1020.7 |
| 20260905174959 | 26 | 233 | 0.0 | 0.0 | 0.03 | 0.03 | 0.03 | 75 | 1020.1 |
| 20260905173957 | 26 | 65 | 0.0 | 0.0 | 0.00 | 0.00 | 0.00 | 76 | 1020.1 |
| 20260905172958 | 25 | 81 | 0.0 | 0.0 | 0.00 | 0.00 | 0.00 | 76 | 1020.2 |
| 20260905171957 | 26 | 70 | 0.0 | 0.0 | 0.00 | 0.00 | 0.00 | 75 | 1020.6 |
| 20260905170957 | 26 | 75 | 0.0 | 0.0 | 0.00 | 0.00 | 0.00 | 72 | 1020.6 |
| 20260905170000 | 28 | 16 | 0.0 | 0.0 | 0.00 | 0.00 | 0.00 | 67 | 1020.4 |
| 20260905164958 | 28 | 44 | 0.0 | 0.0 | 0.00 | 0.00 | 0.00 | 70 | 1020.4 |
| 20260905163958 | 28 | 73 | 0.0 | 0.0 | 0.00 | 0.00 | 0.00 | 68 | 1020.6 |
| 20260905162958 | 28 | 43 | 0.0 | 0.0 | 0.00 | 0.00 | 0.00 | 70 | 1020.7 |
| 20260905161958 | 28 | 71 | 0.0 | 0.0 | 0.00 | 0.00 | 0.00 | 68 | 1021.0 |
| 20260905160957 | 29 | 225 | 0.0 | 0.0 | 0.00 | 0.00 | 0.00 | 63 | 1021.0 |
| 20260905155958 | 30 | 229 | 0.0 | 0.0 | 0.00 | 0.00 | 0.00 | 61 | 1021.1 |
| 20260905154957 | 30 | 229 | 0.0 | 0.0 | 0.00 | 0.00 | 0.00 | 60 | 1021.0 |
| 20260905152959 | 30 | 215 | 0.0 | 0.0 | 0.00 | 0.00 | 0.00 | 59 | 1020.9 |
| 20260905151957 | 29 | 259 | 0.0 | 0.0 | 0.00 | 0.00 | 0.00 | 60 | 1020.8 |
| 20260905150957 | 29 | 145 | 0.0 | 0.0 | 0.00 | 0.00 | 0.00 | 62 | 1020.7 |
| 20260905145957 | 29 | 262 | 0.0 | 0.0 | 0.00 | 0.00 | 0.00 | 58 | 1020.6 |
| 20260905144956 | 29 | 239 | 0.0 | 0.0 | 0.00 | 0.00 | 0.00 | 59 | 1020.6 |
| 20260905143956 | 29 | 75 | 0.0 | 0.0 | 0.00 | 0.00 | 0.00 | 59 | 1020.8 |
| 20260905141959 | 28 | 246 | 0.0 | 0.0 | 0.00 | 0.00 | 0.00 | 60 | 1020.8 |
| 20260905140000 | 28 | 246 | 0.0 | 0.0 | 0.00 | 0.00 | 0.00 | 60 | 1020.7 |
| 20260905134958 | 28 | 193 | 0.0 | 0.0 | 0.00 | 0.00 | 0.00 | 62 | 1020.7 |
| 20260905132958 | 27 | 94 | 0.0 | 0.0 | 0.00 | 0.00 | 0.00 | 66 | 1020.8 |
| 20260905130959 | 27 | 235 | 0.0 | 0.0 | 0.00 | 0.00 | 0.00 | 64 | 1021.1 |
| 20260905130000 | 27 | 214 | 0.0 | 0.0 | 0.00 | 0.00 | 0.00 | 64 | 1021.1 |
| 20260905124957 | 27 | 214 | 0.0 | 0.0 | 0.00 | 0.00 | 0.00 | 65 | 1021.1 |
| 20260905123958 | 26 | 225 | 0.0 | 0.0 | 0.00 | 0.00 | 0.00 | 66 | 1021.1 |
| 20260905120957 | 25 | 191 | 0.0 | 0.0 | 0.00 | 0.00 | 0.00 | 68 | 1020.6 |
| 20260905115958 | 25 | 323 | 0.0 | 0.0 | 0.00 | 0.00 | 0.00 | 70 | 1020.6 |
| 20260905114958 | 24 | 297 | 0.0 | 0.0 | 0.00 | 0.00 | 0.00 | 70 | 1020.5 |
| 20260905104957 | 23 | 298 | 0.0 | 0.0 | 0.00 | 0.00 | 0.00 | 72 | 1019.9 |
| 20260905103959 | 23 | 311 | 0.0 | 0.0 | 0.00 | 0.00 | 0.00 | 72 | 1019.7 |
| 20260905102959 | 23 | 312 | 0.0 | 0.0 | 0.00 | 0.00 | 0.00 | 72 | 1019.7 |
| 20260905101956 | 23 | 312 | 0.0 | 0.0 | 0.00 | 0.00 | 0.00 | 73 | 1019.5 |
| 20260905100958 | 23 | 307 | 0.0 | 0.0 | 0.00 | 0.00 | 0.00 | 73 | 1019.4 |
| 20260905100000 | 23 | 297 | 0.0 | 0.0 | 0.00 | 0.00 | 0.00 | 73 | 1019.4 |
| 20260905094957 | 23 | 283 | 0.0 | 0.0 | 0.00 | 0.00 | 0.00 | 73 | 1019.5 |
| 20260905093958 | 23 | 274 | 0.0 | 0.0 | 0.00 | 0.00 | 0.00 | 74 | 1019.6 |
| 20260905092958 | 23 | 277 | 0.0 | 0.0 | 0.00 | 0.00 | 0.00 | 74 | 1019.7 |
| 20260905090957 | 23 | 276 | 0.0 | 0.0 | 0.00 | 0.00 | 0.00 | 75 | 1019.7 |
| 20260905090000 | 23 | 276 | 0.0 | 0.0 | 0.00 | 0.00 | 0.00 | 74 | 1019.7 |
| 20260905084958 | 23 | 257 | 0.0 | 0.0 | 0.00 | 0.00 | 0.00 | 73 | 1019.9 |
| 20260905083957 | 23 | 290 | 0.0 | 0.0 | 0.00 | 0.00 | 0.00 | 72 | 1020.0 |
| 20260905081957 | 23 | 290 | 0.0 | 0.0 | 0.00 | 0.00 | 0.00 | 72 | 1020.2 |
| 20260905080957 | 23 | 290 | 0.0 | 0.0 | 0.00 | 0.00 | 0.00 | 71 | 1020.4 |
| 20260905080000 | 24 | 290 | 0.0 | 0.0 | 0.00 | 0.00 | 0.00 | 70 | 1020.4 |
| 20260905074958 | 24 | 290 | 0.0 | 0.0 | 0.00 | 0.00 | 0.00 | 69 | 1020.5 |
| 20260905073957 | 24 | 290 | 0.0 | 0.0 | 0.00 | 0.00 | 0.00 | 69 | 1020.5 |
| 20260905072958 | 24 | 290 | 0.0 | 0.0 | 0.00 | 0.00 | 0.00 | 70 | 1020.6 |
| 20260905071957 | 23 | 290 | 0.0 | 0.0 | 0.00 | 0.00 | 0.00 | 70 | 1020.7 |
| 20260905070957 | 23 | 290 | 0.0 | 0.0 | 0.00 | 0.00 | 0.00 | 71 | 1020.8 |
| 20260905065958 | 23 | 290 | 0.0 | 0.0 | 0.00 | 0.00 | 0.00 | 72 | 1020.9 |
| 20260905064959 | 23 | 290 | 0.0 | 0.0 | 0.00 | 0.00 | 0.00 | 71 | 1020.9 |
| 20260905062957 | 23 | 290 | 0.0 | 0.0 | 0.00 | 0.00 | 0.00 | 72 | 1021.0 |
| 20260905061957 | 23 | 290 | 0.0 | 0.0 | 0.00 | 0.00 | 0.00 | 72 | 1021.1 |
| 20260905060958 | 23 | 298 | 0.0 | 0.0 | 0.00 | 0.00 | 0.00 | 72 | 1021.2 |
| 20260905055958 | 23 | 300 | 0.0 | 0.0 | 0.00 | 0.00 | 0.00 | 73 | 1021.3 |
| 20260905054958 | 24 | 300 | 0.0 | 0.0 | 0.00 | 0.00 | 0.00 | 73 | 1021.5 |
| 20260905052959 | 23 | 286 | 0.0 | 0.0 | 0.00 | 0.00 | 0.00 | 74 | 1021.6 |
| 20260905051957 | 23 | 277 | 0.0 | 0.0 | 0.00 | 0.00 | 0.00 | 75 | 1021.6 |
| 20260905050957 | 23 | 283 | 0.0 | 0.0 | 0.00 | 0.00 | 0.00 | 75 | 1021.6 |
| 20260905045957 | 23 | 233 | 0.0 | 0.0 | 0.00 | 0.00 | 0.00 | 75 | 1021.6 |
| 20260905044957 | 23 | 269 | 0.0 | 0.0 | 0.00 | 0.00 | 0.00 | 75 | 1021.6 |